Regional Weather Roundup
Issued by NWS

Home | Current Version | Previous Version | Graphics & Text | Print | Product List | Glossary On
Versions: 1 2 3 4 5 6 7 8 9 10 11 12 13 14 15 16 17 18 19 20 21 22 23 24 25 26 27 28 29 30 31 32 33 34 35 36 37 38 39 40 41 42 43 44 45 46 47 48 49 50
000
ASUS43 KDMX 170007
RWRIA

WEATHER ROUNDUP FOR IOWA
NATIONAL WEATHER SERVICE DES MOINES IA
600 PM CST TUE DEC 16 2014

NOTE: "FAIR" INDICATES FEW OR NO CLOUDS BELOW 12,000 FEET WITH NO
SIGNIFICANT WEATHER AND/OR OBSTRUCTIONS TO VISIBILITY.

* - THESE STATIONS ARE NOT NWS STATIONS...THUS NOT UNDER NWS
QUALITY CONTROL.  THEY ALSO DO NOT REPORT WEATHER SUCH
AS PRECIPITATION OR FOG.

IAZ001>003-012>014-020>022-031>034-043>046-170100-
   NORTHWEST IOWA

CITY           SKY/WX    TMP DP  RH WIND       PRES   REMARKS
CARROLL *      CLOUDY    21  16  79 NW18G24   30.30R WCI   6
CHEROKEE *     CLOUDY    17  14  86 NW7       30.32R WCI   8
DENISON *      CLEAR     19  14  79 N12       30.29S WCI   7
LE MARS *      CLEAR     16  12  86 NW10      30.34R WCI   3
ORANGE CITY *  CLOUDY    18  12  79 NW8       30.30R WCI   7
SHELDON *      FLURRIES  14  10  85 NW17G23   30.29R WCI  -3
SIOUX CITY     CLEAR     20  13  74 NW14      30.33S WCI   7
6HR MIN TEMP:  20; 6HR MAX TEMP:  26;

SPENCER        CLEAR     13   7  77 NW13      30.30R WCI  -2
6HR MIN TEMP:  13; 6HR MAX TEMP:  21; 6HR PCP: TRACE;

STORM LAKE *   CLOUDY    18  12  79 NW14      30.30R WCI   4
$$

IAZ055>058-069>071-079>083-090>094-170100-
   SOUTHWEST IOWA

CITY           SKY/WX    TMP DP  RH WIND       PRES   REMARKS
ATLANTIC *     CLEAR     23  18  80 NW10      30.30R WCI  12
AUDUBON *      CLEAR     21  14  73 NW7       30.29R WCI  13
CLARINDA *     CLEAR     25  21  86 NW8       30.34R WCI  16
COUNCIL BLFS * CLEAR     23  18  80 NW14      30.31R WCI  11
CRESTON *      CLEAR     23  19  86 W8        30.28R WCI  14
HARLAN  *      CLEAR     21  19  93 NW9G16    30.34R WCI  11
LAMONI         PTCLDY    26  20  77 W9        30.28R WCI  17
6HR MIN TEMP:  26; 6HR MAX TEMP:  29;

RED OAK *      CLEAR     25  19  80 NW7       30.33R WCI  17
SHENANDOAH *   CLEAR     25  19  80 NW7       30.34S WCI  17
$$

IAZ047>049-059>061-072>074-084-170100-
   CENTRAL IOWA

CITY           SKY/WX    TMP DP  RH WIND       PRES   REMARKS
AMES           CLOUDY    22  15  75 NW14      30.28R WCI   9
6HR MIN TEMP:  21; 6HR MAX TEMP:  24;

ANKENY *       CLOUDY    25  18  74 NW13G22   30.28R WCI  13
CHARITON *     CLOUDY    25  19  80 NW13      30.27R WCI  13
DES MOINES     CLOUDY    26  17  68 NW14      30.28R WCI  14
6HR MIN TEMP:  25; 6HR MAX TEMP:  29;

GRINNELL*      CLOUDY    21  18  86 NW20      30.25R WCI   6
KNOXVILLE *    CLOUDY    27  19  74 NW16      30.25R WCI  14
MARSHALLTOWN   CLOUDY    19  14  81 NW21      30.25R WCI   3
6HR MIN TEMP:  19; 6HR MAX TEMP:  22;

PELLA *        CLOUDY    25  19  80 NW15      30.28R WCI  12
PERRY *        CLOUDY    25  19  80 NW14      30.30R WCI  13
$$

IAZ004>006-015-016-023>025-035-036-170100-
   NORTH CENTRAL IOWA

CITY           SKY/WX    TMP DP  RH WIND       PRES   REMARKS
ALGONA *       FLURRIES  14   9  79 N16G23    30.27R WCI  -2
CLARION *      LGT SNOW  16  12  86 NW15G24   30.27R WCI   1
ESTHERVILLE    FLURRIES  12   7  80 NW16      30.26F WCI  -5
6HR MIN TEMP:  12; 6HR MAX TEMP:  16; 6HR PCP: TRACE;

FORT DODGE *   MOCLDY    16   9  73 NW9       30.29R WCI   4
MASON CITY     LGT SNOW  16  11  80 NW17G26   30.24R WCI   0
6HR MIN TEMP:  15; 6HR MAX TEMP:  19;

FOREST CITY *  FLURRIES  18  12  79 NW17      30.24R WCI   2
IOWA FALLS *   FLURRIES  17  12  82 NW20      30.26R WCI   0
$$

IAZ007>011-017>019-026>030-037>042-050>054-066-170100-
   NORTHEAST IOWA

CITY           SKY/WX    TMP DP  RH WIND       PRES   REMARKS
CEDAR RAPIDS   CLOUDY    20  16  84 NW13      30.21R WCI   7
6HR MIN TEMP:  20; 6HR MAX TEMP:  28;

CHARLES CITY * FLURRIES  18  14  86 NW21      30.21R WCI   1
CLINTON *      CLOUDY    27  21  80 NW20      30.16S WCI  13
DECORAH *      CLOUDY    21  16  79 NW20      30.15S WCI   6
DUBUQUE        CLOUDY    25  22  88 NW18      30.12R WCI  11
6HR MIN TEMP:  25; 6HR MAX TEMP:  30;

MONTICELLO *   CLOUDY    25  21  86 NW21G29   30.17R WCI  10
OELWEIN *      FLURRIES  21  16  79 NW22G29   30.19R WCI   5
WATERLOO       FLURRIES  19  14  81 NW15      30.22R WCI   5
6HR MIN TEMP:  19; 6HR MAX TEMP:  25; 6HR PCP: TRACE;

$$

IAZ064-065-067-068-078-170100-
   EAST CENTRAL IOWA

CITY           SKY/WX    TMP DP  RH WIND       PRES   REMARKS
DAVENPORT      CLOUDY    26  20  77 W22       30.17R WCI  12
6HR MIN TEMP:  26; 6HR MAX TEMP:  32;

IOWA CITY      CLOUDY    22  16  78 W17       30.24R WCI   8
6HR MIN TEMP:  22; 6HR MAX TEMP:  30;

MT. PLEASANT * CLOUDY    24  19  81 W15G21    30.23R WCI  11
MUSCATINE *    CLOUDY    25  19  80 NW15G22   30.23R WCI  12
QUAD CITIES    CLOUDY    27  20  75 NW18      30.17R WCI  14
6HR MIN TEMP:  27; 6HR MAX TEMP:  33;

$$

IAZ062-063-075>077-085>089-095>099-170100-
   SOUTHEAST IOWA

CITY           SKY/WX    TMP DP  RH WIND       PRES   REMARKS
BURLINGTON     FLURRIES  25  20  81 NW12G20   30.22R WCI  14
6HR MIN TEMP:  25; 6HR MAX TEMP:  30; 6HR PCP: TRACE;

FAIRFIELD *    CLOUDY    25  19  80 W17       30.24R WCI  11
FORT MADISON * CLOUDY    27  23  86 NW17      30.24R WCI  14
KEOKUK *       CLOUDY    28  23  80 NW13      30.24R WCI  18
OSKALOOSA *    CLOUDY    24  19  81 NW15G22   30.25R WCI  12
CENTERVILLE *  CLOUDY    27  23  86 W9        30.27R WCI  17
OTTUMWA        CLOUDY    25  18  74 NW10      30.24R WCI  15
6HR MIN TEMP:  24; 6HR MAX TEMP:  27;

WASHINGTON *   CLOUDY    23  23 100 NW13G22   30.23R WCI  11
$$

ABBREVIATIONS USED IN REMARKS
   TC - TEMPERATURES IN CELSIUS
  WCI - WIND CHILL INDEX
   HX - HEAT INDEX
  VSB - VISIBILITY
$$



USA.gov is the U.S. government's official web portal to all federal, state and local government web resources and services.